Flag for Poland

Past Weather in Częstochowa, Poland — Yesterday and Last 2 Weeks

Now
54 °F

Passing clouds.


Feels Like: 53 °F
Forecast: 65 / 40 °F
Wind: 5 mph from Northeast

Location: Katowice Airport
Current Time: Sep 18, 2020 at 11:15:48 am
Latest Report: Sep 18, 2020 at 10:30 am
Visibility: N/A
Pressure30.39 "Hg
Humidity: 63%
Dew Point: 41 °F
Location of CzęstochowaLocation

Past Weather in Częstochowa — Graph

°F

Częstochowa Temperature Yesterday

Maximum temperature yesterday: 66 °F (at 12:00 am)
Minimum temperature yesterday: 41 °F (at 10:30 pm)
Average temperature yesterday: 58 °F

High & Low Weather Summary for the Past Weeks

 TemperatureHumidityPressure
High82 °F (Sep 15, 2:00 pm)100% (Sep 3, 10:00 pm)30.42 "Hg (Sep 3, 10:00 pm)
Low34 °F (Sep 18, 6:30 am)37% (Sep 15, 2:30 pm)29.95 "Hg (Sep 5, 6:30 pm)
Average60 °F78%30.19 "Hg
* Reported Sep 3 10:00 am — Sep 18 10:00 am, Częstochowa. Weather by CustomWeather, © 2020

Note: Actual official high and low records may vary slightly from our data, if they occured in-between our weather recording intervals... More about our weather records

Częstochowa Weather History for the Previous 24 Hours

Scroll right to see more
 ConditionsComfort  
Time TempWeatherWind HumidityBarometerVisibility
10:00 am
Fri, Sep 18
54 °FPassing clouds.7 mph67%30.39 "HgN/A
9:30 am50 °FPassing clouds.6 mph76%30.39 "HgN/A
9:00 am48 °FSunny.5 mph87%30.39 "Hg10 mi
8:30 am45 °FSunny.1 mph93%30.36 "Hg10 mi
8:00 am43 °FSunny.1 mph100%30.36 "Hg10 mi
7:30 am36 °FSunny.1 mph100%30.36 "Hg10 mi
7:00 am34 °FLight fog.2 mph100%30.36 "HgN/A
6:30 am34 °FFog.1 mph100%30.36 "Hg2 mi
6:00 am36 °FLight fog.1 mph93%30.33 "Hg6 mi
5:30 am36 °FFog.No wind93%30.33 "HgN/A
5:00 am37 °FClear.2 mph100%30.33 "Hg10 mi
4:30 am36 °FClear.2 mph93%30.33 "Hg10 mi
4:00 am36 °FClear.2 mph93%30.33 "Hg10 mi
3:30 am37 °FFog.1 mph93%30.33 "HgN/A
3:00 am37 °FFog.No wind100%30.36 "HgN/A
2:30 am39 °FFog.1 mph93%30.36 "HgN/A
2:00 am39 °FClear.2 mph93%30.36 "Hg10 mi
1:30 am41 °FClear.5 mph93%30.36 "Hg10 mi
1:00 am43 °FClear.2 mph93%30.33 "Hg10 mi
12:30 am41 °FClear.2 mph93%30.33 "Hg10 mi
12:00 am43 °FClear.1 mph93%30.33 "Hg10 mi
11:30 pm
Thu, Sep 17
45 °FClear.2 mph93%30.33 "Hg10 mi
11:00 pm43 °FClear.3 mph87%30.33 "Hg10 mi
10:30 pm41 °FClear.6 mph100%30.33 "Hg10 mi
10:00 pm43 °FClear.2 mph93%30.33 "Hg10 mi
9:30 pm45 °FClear.3 mph93%30.33 "Hg10 mi
9:00 pm46 °FClear.1 mph82%30.33 "Hg10 mi
8:30 pm48 °FClear.5 mph76%30.30 "Hg10 mi
8:00 pm50 °FClear.3 mph71%30.30 "Hg10 mi
7:30 pm52 °FClear.2 mph67%30.30 "Hg10 mi
7:00 pm54 °FClear.6 mph58%30.30 "Hg10 mi
6:30 pm55 °FSunny.7 mph55%30.27 "Hg10 mi
6:00 pm59 °FPassing clouds.9 mph48%30.27 "HgN/A
5:30 pm59 °FSunny.12 mph48%30.27 "Hg10 mi
5:00 pm61 °FPassing clouds.15 mph45%30.27 "HgN/A
4:30 pm61 °FPassing clouds.15 mph52%30.24 "HgN/A
4:00 pm61 °FPassing clouds.12 mph52%30.24 "HgN/A
3:30 pm61 °FPassing clouds.15 mph55%30.24 "HgN/A
3:00 pm63 °FPassing clouds.15 mph56%30.24 "HgN/A
2:30 pm61 °FScattered clouds.16 mph59%30.24 "HgN/A
2:00 pm61 °FPartly sunny.14 mph63%30.21 "HgN/A
1:30 pm63 °FPartly sunny.15 mph64%30.21 "HgN/A
1:00 pm63 °FScattered clouds.13 mph64%30.21 "HgN/A
12:30 pm63 °FPartly sunny.7 mph64%30.21 "HgN/A
12:00 pm61 °FPartly sunny.10 mph72%30.18 "HgN/A
11:30 am61 °FPartly sunny.12 mph77%30.18 "HgN/A
11:00 am59 °FBroken clouds.9 mph82%30.18 "HgN/A
Weather by CustomWeather, © 2020

See weather overview